When you browse on this site, cookies collect data to enhance your experience and personalize the content and advertising you see.
Visit our Privacy Policy to learn more. By continuing to use the site, you agree to this use of cookies and data.
  • In Switzerland
  • List of Countries
  • For 7 days
  • Water Temperature
  • Satellite Maps
  • Weather Map
  • Weather Widgets
  • user-avatar
    Login

    Hourly Weather Lubango

    Today, 20 March, Wednesday

    Time Temperature Precipitation Wind Pressure Humidity
    00:00 +18°C° 0.3 mm 1 mps 607 mmHg 74%
    01:00 +18°C° 0.3 mm 1 mps 607 mmHg 73%
    02:00 +18°C° 0.6 mm 1 mps 607 mmHg 73%
    03:00 +18°C° 0.6 mm 1 mps 607 mmHg 72%
    04:00 +18°C° 0.6 mm 1 mps 607 mmHg 71%
    05:00 +18°C° 0.3 mm 1 mps 607 mmHg 69%
    06:00 +19°C° 0.3 mm 1 mps 608 mmHg 68%
    07:00 +18°C° 0.3 mm 2 mps 608 mmHg 66%
    08:00 +22°C° 0.1 mm 1 mps 609 mmHg 59%
    09:00 +25°C° 0.1 mm 1 mps 610 mmHg 51%
    10:00 +28°C° 0.1 mm 1 mps 611 mmHg 43%
    11:00 +28°C° 0 mm 1 mps 611 mmHg 42%
    12:00 +28°C° 0 mm 1 mps 610 mmHg 41%
    13:00 +28°C° 0 mm 1 mps 610 mmHg 41%
    14:00 +27°C° 0.1 mm 1 mps 609 mmHg 43%
    15:00 +26°C° 0.1 mm 1 mps 608 mmHg 46%
    16:00 +25°C° 0.1 mm 1 mps 607 mmHg 49%
    17:00 +24°C° 0 mm 1 mps 607 mmHg 50%
    18:00 +23°C° 0 mm 1 mps 607 mmHg 52%
    19:00 +22°C° 0 mm 1 mps 607 mmHg 54%
    20:00 +21°C° 0.1 mm 1 mps 607 mmHg 58%
    21:00 +20°C° 0.1 mm 1 mps 608 mmHg 62%
    22:00 +19°C° 0.1 mm 1 mps 608 mmHg 67%
    23:00 +19°C° 0 mm 1 mps 608 mmHg 68%

    Tomorrow, 21 March, Thursday

    Time Temperature Precipitation Wind Pressure Humidity
    00:00 +19°C° 0 mm 1 mps 607 mmHg 69%
    01:00 +16°C° 0 mm 0 mps 607 mmHg 70%
    02:00 +16°C° 0 mm 0 mps 607 mmHg 72%
    03:00 +15°C° 0 mm 0 mps 607 mmHg 74%
    04:00 +16°C° 0 mm 1 mps 607 mmHg 76%
    05:00 +16°C° 0 mm 1 mps 607 mmHg 77%
    06:00 +18°C° 0 mm 1 mps 608 mmHg 78%
    07:00 +18°C° 0 mm 1 mps 608 mmHg 79%
    08:00 +21°C° 0 mm 1 mps 610 mmHg 67%
    09:00 +24°C° 0 mm 2 mps 611 mmHg 55%
    10:00 +27°C° 0 mm 2 mps 612 mmHg 42%
    11:00 +27°C° 0 mm 2 mps 611 mmHg 43%
    12:00 +27°C° 0 mm 1 mps 611 mmHg 44%
    13:00 +26°C° 0 mm 1 mps 610 mmHg 45%
    14:00 +25°C° 0 mm 1 mps 609 mmHg 50%
    15:00 +24°C° 0 mm 1 mps 608 mmHg 54%
    16:00 +23°C° 0 mm 1 mps 607 mmHg 59%
    17:00 +22°C° 0.1 mm 1 mps 607 mmHg 66%
    18:00 +20°C° 0.1 mm 1 mps 607 mmHg 73%
    19:00 +19°C° 0.1 mm 1 mps 607 mmHg 81%
    20:00 +19°C° 0.5 mm 1 mps 608 mmHg 83%
    21:00 +18°C° 0.5 mm 1 mps 608 mmHg 85%
    22:00 +18°C° 0.5 mm 1 mps 609 mmHg 88%
    23:00 +18°C° 0.4 mm 1 mps 609 mmHg 86%

    Day after tomorrow, 22 March, Friday

    Time Temperature Precipitation Wind Pressure Humidity
    00:00 +18°C° 0.4 mm 1 mps 608 mmHg 85%
    01:00 +18°C° 0.4 mm 1 mps 608 mmHg 84%
    02:00 +18°C° 0 mm 1 mps 608 mmHg 84%
    03:00 +18°C° 0 mm 1 mps 607 mmHg 84%
    04:00 +15°C° 0 mm 0 mps 607 mmHg 83%
    05:00 +16°C° 0 mm 0 mps 607 mmHg 80%
    06:00 +18°C° 0 mm 1 mps 608 mmHg 77%
    07:00 +19°C° 0 mm 1 mps 608 mmHg 74%
    08:00 +22°C° 0 mm 1 mps 610 mmHg 62%
    09:00 +25°C° 0 mm 1 mps 611 mmHg 50%
    10:00 +28°C° 0 mm 2 mps 612 mmHg 38%
    11:00 +29°C° 0 mm 2 mps 612 mmHg 35%
    12:00 +29°C° 0 mm 2 mps 611 mmHg 32%
    13:00 +30°C° 0 mm 3 mps 611 mmHg 29%
    14:00 +29°C° 0 mm 2 mps 610 mmHg 35%
    15:00 +27°C° 0 mm 1 mps 609 mmHg 42%
    16:00 +25°C° 0 mm 1 mps 608 mmHg 48%
    17:00 +24°C° 0 mm 1 mps 608 mmHg 51%
    18:00 +23°C° 0 mm 1 mps 608 mmHg 54%
    19:00 +22°C° 0 mm 1 mps 608 mmHg 57%
    20:00 +21°C° 0 mm 1 mps 608 mmHg 61%
    21:00 +18°C° 0 mm 0 mps 609 mmHg 65%
    22:00 +17°C° 0 mm 0 mps 609 mmHg 69%
    23:00 +17°C° 0.2 mm 0 mps 609 mmHg 74%

    23 March, Saturday

    Time Temperature Precipitation Wind Pressure Humidity
    00:00 +16°C° 0.2 mm 0 mps 608 mmHg 78%
    01:00 +16°C° 0.2 mm 1 mps 608 mmHg 83%
    02:00 +16°C° 0 mm 1 mps 608 mmHg 83%
    03:00 +16°C° 0 mm 1 mps 607 mmHg 83%
    04:00 +16°C° 0 mm 1 mps 607 mmHg 83%
    05:00 +18°C° 0 mm 1 mps 607 mmHg 79%
    06:00 +19°C° 0 mm 1 mps 608 mmHg 75%
    07:00 +19°C° 0 mm 1 mps 609 mmHg 71%
    08:00 +22°C° 0 mm 1 mps 610 mmHg 61%
    09:00 +25°C° 0 mm 1 mps 611 mmHg 51%
    10:00 +28°C° 0 mm 1 mps 612 mmHg 41%
    11:00 +28°C° 0 mm 1 mps 612 mmHg 41%
    12:00 +28°C° 0 mm 1 mps 611 mmHg 42%
    13:00 +29°C° 0 mm 1 mps 610 mmHg 42%
    14:00 +27°C° 0.1 mm 1 mps 609 mmHg 47%
    15:00 +25°C° 0.1 mm 1 mps 608 mmHg 53%
    16:00 +24°C° 0.1 mm 1 mps 607 mmHg 59%
    17:00 +23°C° 0 mm 1 mps 607 mmHg 61%
    18:00 +22°C° 0 mm 1 mps 607 mmHg 64%
    19:00 +21°C° 0 mm 1 mps 608 mmHg 66%
    20:00 +20°C° 0.2 mm 1 mps 608 mmHg 72%
    21:00 +19°C° 0.2 mm 1 mps 608 mmHg 77%
    22:00 +18°C° 0.2 mm 1 mps 608 mmHg 83%
    23:00 +18°C° 0 mm 1 mps 608 mmHg 83%

    24 March, Sunday

    Time Temperature Precipitation Wind Pressure Humidity
    00:00 +18°C° 0 mm 1 mps 608 mmHg 83%
    01:00 +18°C° 0 mm 1 mps 608 mmHg 83%
    02:00 +18°C° 0.1 mm 1 mps 607 mmHg 82%
    03:00 +18°C° 0.1 mm 1 mps 607 mmHg 81%
    04:00 +16°C° 0.1 mm 0 mps 607 mmHg 81%
    05:00 +16°C° 0 mm 0 mps 607 mmHg 78%
    06:00 +19°C° 0 mm 1 mps 608 mmHg 76%
    07:00 +19°C° 0 mm 1 mps 608 mmHg 74%
    08:00 +19°C° 0 mm 0 mps 609 mmHg 67%
    09:00 +21°C° 0 mm 0 mps 610 mmHg 59%
    10:00 +23°C° 0 mm 0 mps 610 mmHg 52%
    11:00 +24°C° 0 mm 0 mps 610 mmHg 48%
    12:00 +25°C° 0 mm 0 mps 610 mmHg 44%
    13:00 +26°C° 0 mm 0 mps 610 mmHg 41%
    14:00 +27°C° 0 mm 1 mps 609 mmHg 43%
    15:00 +26°C° 0 mm 1 mps 608 mmHg 45%
    16:00 +25°C° 0 mm 1 mps 608 mmHg 48%
    17:00 +24°C° 0 mm 1 mps 607 mmHg 54%
    18:00 +22°C° 0 mm 1 mps 607 mmHg 61%
    19:00 +20°C° 0 mm 1 mps 607 mmHg 67%
    20:00 +19°C° 0.4 mm 1 mps 607 mmHg 71%
    21:00 +19°C° 0.4 mm 1 mps 607 mmHg 75%
    22:00 +18°C° 0.4 mm 1 mps 607 mmHg 79%
    23:00 +18°C° 0.1 mm 1 mps 607 mmHg 81%

    25 March, Monday

    Time Temperature Precipitation Wind Pressure Humidity
    00:00 +16°C° 0.1 mm 1 mps 607 mmHg 83%
    01:00 +16°C° 0.1 mm 1 mps 607 mmHg 85%
    02:00 +16°C° 0 mm 1 mps 606 mmHg 84%
    03:00 +16°C° 0 mm 1 mps 606 mmHg 82%
    04:00 +16°C° 0 mm 1 mps 606 mmHg 80%
    05:00 +18°C° 0 mm 1 mps 606 mmHg 78%
    06:00 +18°C° 0 mm 1 mps 607 mmHg 75%
    07:00 +19°C° 0 mm 1 mps 607 mmHg 72%
    08:00 +21°C° 0 mm 1 mps 609 mmHg 63%
    09:00 +24°C° 0 mm 1 mps 610 mmHg 53%
    10:00 +27°C° 0 mm 1 mps 611 mmHg 43%
    11:00 +27°C° 0 mm 1 mps 610 mmHg 42%
    12:00 +28°C° 0 mm 2 mps 610 mmHg 40%
    13:00 +28°C° 0 mm 2 mps 610 mmHg 39%
    14:00 +26°C° 1.1 mm 2 mps 608 mmHg 48%
    15:00 +24°C° 1.1 mm 2 mps 607 mmHg 58%
    16:00 +21°C° 1.1 mm 2 mps 606 mmHg 68%
    17:00 +21°C° 1.5 mm 1 mps 606 mmHg 73%
    18:00 +20°C° 1.5 mm 1 mps 606 mmHg 78%
    19:00 +19°C° 1.5 mm 1 mps 606 mmHg 83%
    20:00 +19°C° 2.6 mm 1 mps 607 mmHg 83%
    21:00 +19°C° 2.6 mm 1 mps 607 mmHg 84%
    22:00 +19°C° 2.6 mm 1 mps 608 mmHg 85%
    23:00 +19°C° 2.3 mm 1 mps 608 mmHg 86%
    Show more